Location: Krasnoyarskiy Pitomnik
(51.1333°N, 71.6167°E)
Time: 10:19:28
(UTC+00:00)

Cosmos 1674 - Pass Details

Date: 22 October 2021
Orbit: 492 x 514 km, 82.5° (Epoch: 06 December)

Event Time Altitude Azimuth Distance (km) Brightness Sun altitude
Exits shadow 23:30:38 12° 170° (S) 1,569 5.1 -22.5°
Maximum altitude 23:33:56 51° 95° (E) 640 3.4 -22.0°
Drops below altitude 10° 23:37:35 10° 20° (NNE) 1,721 5.7 -21.4°
Sets 23:39:45 0° 15° (NNE) 2,615 6.6 -21.1°
